Overview Statistics Trail Chart Weather Telemetry Raw packets
 

This is the latest recevied weather packets stored in our database for station/object KC4JIR. If no packets are shown the sender has not sent any weather packets the latest 10 day(s).

<< 10 11 12 13 14 15 16 >>
Time Temp. Humidity Pressure Rain* Wind** Luminosity Snow
1788546915 33.33° C 67% 1013.1 hPa 0 mm - 720 W/m² -
1788546610 33.33° C 69% 1013.1 hPa 0 mm - 737 W/m² -
1788546305 32.22° C 69% 1012.9 hPa 0 mm - 824 W/m² -
1788546000 32.22° C 68% 1012.8 hPa 0 mm - 255 W/m² -
1788545695 33.33° C 69% 1013.6 hPa 0 mm - 238 W/m² -
1788545390 31.67° C 70% 1013.3 hPa 0 mm - 823 W/m² -
1788545085 31.67° C 72% 1013.3 hPa 0 mm - 262 W/m² -
1788544784 31.11° C 73% 1013.5 hPa 0 mm - 249 W/m² -
1788544483 31.67° C 73% 1013.3 hPa 0 mm - 195 W/m² -
1788544178 31.67° C 73% 1013.6 hPa 0 mm - 166 W/m² -
1788543873 32.22° C 71% 1013.8 hPa 0 mm - 232 W/m² -
1788543570 32.22° C 72% 1013.8 hPa 0 mm - 509 W/m² -
1788543270 32.78° C 69% 1013.8 hPa 0 mm - 626 W/m² -
1788542965 33.33° C 68% 1013.8 hPa 0 mm - 213 W/m² -
1788542661 32.78° C 71% 1013.9 hPa 0 mm - 842 W/m² -
1788542355 32.22° C 71% 1014 hPa 0 mm - 383 W/m² -
1788542050 32.22° C 70% 1014.1 hPa 0 mm - 867 W/m² -
1788541747 32.78° C 69% 1014 hPa 0 mm - 505 W/m² -
1788541442 32.22° C 70% 1014.2 hPa 0 mm - 390 W/m² -
1788541136 31.67° C 72% 1014.1 hPa 0 mm - 294 W/m² -
1788540836 31.11° C 74% 1014.3 hPa 0 mm - 903 W/m² -
1788540530 31.11° C 75% 1014.5 hPa 0 mm - 196 W/m² -
1788540230 31.67° C 73% 1014.6 hPa 0 mm - 144 W/m² -
1788539927 31.11° C 76% 1014.6 hPa 0 mm - 273 W/m² -
1788539626 31.67° C 75% 1014.4 hPa 0 mm - 138 W/m² -

* Rain latest hour (hover to see other rain measurements)
** Current wind speed in m/s (hover to see current wind gust speed)